• In India
  • List of Countries
  • For 7 days
  • Water Temperature
  • Satellite Maps
  • Weather Map
  • Weather Widgets
  • user-avatar
    Login

    Hourly Weather São Paulo

    Today, 20 January, Saturday

    Time Temperature Precipitation Wind Pressure Humidity
    00:00 +23°C° 1.3 mm 1 mps 699 mmHg 88%
    01:00 +23°C° 0.6 mm 1 mps 699 mmHg 88%
    02:00 +23°C° 0.6 mm 1 mps 699 mmHg 88%
    03:00 +22°C° 0 mm 1 mps 698 mmHg 88%
    04:00 +22°C° 0.5 mm 1 mps 699 mmHg 88%
    05:00 +22°C° 0.5 mm 1 mps 699 mmHg 88%
    06:00 +22°C° 0.5 mm 1 mps 699 mmHg 88%
    07:00 +23°C° 0.3 mm 1 mps 699 mmHg 86%
    08:00 +24°C° 0.3 mm 1 mps 699 mmHg 84%
    09:00 +25°C° 0 mm 1 mps 700 mmHg 80%
    10:00 +27°C° 0.3 mm 1 mps 700 mmHg 74%
    11:00 +28°C° 0.3 mm 1 mps 700 mmHg 68%
    12:00 +30°C° 0.3 mm 1 mps 700 mmHg 62%
    13:00 +29°C° 0.8 mm 1 mps 700 mmHg 64%
    14:00 +29°C° 0.8 mm 2 mps 699 mmHg 67%
    15:00 +29°C° 0.8 mm 2 mps 699 mmHg 69%
    16:00 +27°C° 1.6 mm 2 mps 699 mmHg 74%
    17:00 +26°C° 1.6 mm 2 mps 698 mmHg 79%
    18:00 +25°C° 1.6 mm 2 mps 698 mmHg 84%
    19:00 +25°C° 2.1 mm 2 mps 698 mmHg 85%
    20:00 +24°C° 2.1 mm 2 mps 699 mmHg 86%
    21:00 +23°C° 2.1 mm 2 mps 699 mmHg 87%
    22:00 +23°C° 0.5 mm 1 mps 699 mmHg 88%
    23:00 +23°C° 0.5 mm 1 mps 699 mmHg 88%

    Tomorrow, 21 January, Sunday

    Time Temperature Precipitation Wind Pressure Humidity
    00:00 +23°C° 0.5 mm 1 mps 699 mmHg 88%
    01:00 +23°C° 0.2 mm 1 mps 699 mmHg 89%
    02:00 +23°C° 0.2 mm 1 mps 699 mmHg 89%
    03:00 +22°C° 0.2 mm 1 mps 698 mmHg 90%
    04:00 +22°C° 0 mm 1 mps 698 mmHg 90%
    05:00 +22°C° 0 mm 1 mps 698 mmHg 90%
    06:00 +22°C° 0 mm 1 mps 698 mmHg 90%
    07:00 +23°C° 0 mm 1 mps 699 mmHg 85%
    08:00 +25°C° 0 mm 1 mps 699 mmHg 79%
    09:00 +26°C° 0 mm 1 mps 699 mmHg 73%
    10:00 +27°C° 0.4 mm 1 mps 699 mmHg 70%
    11:00 +28°C° 0.4 mm 1 mps 699 mmHg 67%
    12:00 +30°C° 0.4 mm 1 mps 699 mmHg 63%
    13:00 +29°C° 1.8 mm 1 mps 699 mmHg 67%
    14:00 +29°C° 1.8 mm 1 mps 698 mmHg 70%
    15:00 +28°C° 1.8 mm 2 mps 698 mmHg 73%
    16:00 +27°C° 2.5 mm 2 mps 697 mmHg 77%
    17:00 +26°C° 2.5 mm 1 mps 697 mmHg 81%
    18:00 +25°C° 2.5 mm 1 mps 697 mmHg 85%
    19:00 +24°C° 2 mm 1 mps 697 mmHg 86%
    20:00 +24°C° 2 mm 1 mps 698 mmHg 87%
    21:00 +24°C° 2 mm 1 mps 698 mmHg 88%
    22:00 +23°C° 1.4 mm 1 mps 698 mmHg 88%
    23:00 +23°C° 1.4 mm 1 mps 698 mmHg 89%

    Day after tomorrow, 22 January, Monday

    Time Temperature Precipitation Wind Pressure Humidity
    00:00 +23°C° 1.4 mm 1 mps 698 mmHg 89%
    01:00 +23°C° 0.4 mm 1 mps 697 mmHg 89%
    02:00 +23°C° 0.4 mm 1 mps 697 mmHg 89%
    03:00 +22°C° 0.4 mm 1 mps 696 mmHg 89%
    04:00 +22°C° 0.1 mm 1 mps 696 mmHg 89%
    05:00 +22°C° 0.1 mm 1 mps 696 mmHg 88%
    06:00 +22°C° 0.1 mm 1 mps 696 mmHg 88%
    07:00 +23°C° 0 mm 1 mps 697 mmHg 84%
    08:00 +25°C° 0 mm 1 mps 697 mmHg 79%
    09:00 +26°C° 0 mm 1 mps 698 mmHg 75%
    10:00 +27°C° 0.4 mm 1 mps 698 mmHg 72%
    11:00 +28°C° 0.4 mm 1 mps 697 mmHg 68%
    12:00 +29°C° 0.4 mm 2 mps 697 mmHg 65%
    13:00 +29°C° 0.7 mm 2 mps 697 mmHg 64%
    14:00 +29°C° 0.7 mm 2 mps 696 mmHg 64%
    15:00 +30°C° 0.7 mm 3 mps 696 mmHg 63%
    16:00 +29°C° 1 mm 3 mps 696 mmHg 68%
    17:00 +28°C° 1 mm 2 mps 696 mmHg 72%
    18:00 +27°C° 1 mm 2 mps 695 mmHg 76%
    19:00 +26°C° 0.7 mm 2 mps 696 mmHg 78%
    20:00 +25°C° 0.7 mm 2 mps 696 mmHg 80%
    21:00 +24°C° 0.7 mm 2 mps 696 mmHg 82%
    22:00 +24°C° 0.6 mm 2 mps 696 mmHg 83%
    23:00 +24°C° 0.6 mm 2 mps 696 mmHg 83%

    23 January, Tuesday

    Time Temperature Precipitation Wind Pressure Humidity
    00:00 +23°C° 0.6 mm 2 mps 696 mmHg 84%
    01:00 +23°C° 0 mm 2 mps 696 mmHg 84%
    02:00 +23°C° 0 mm 2 mps 695 mmHg 84%
    03:00 +23°C° 0 mm 2 mps 695 mmHg 84%
    04:00 +23°C° 0 mm 2 mps 695 mmHg 83%
    05:00 +23°C° 0 mm 2 mps 695 mmHg 83%
    06:00 +23°C° 0 mm 2 mps 695 mmHg 82%
    07:00 +24°C° 0 mm 3 mps 696 mmHg 75%
    08:00 +26°C° 0 mm 3 mps 697 mmHg 68%
    09:00 +28°C° 0 mm 3 mps 697 mmHg 61%
    10:00 +29°C° 0.1 mm 3 mps 697 mmHg 58%
    11:00 +31°C° 0.1 mm 3 mps 697 mmHg 55%
    12:00 +33°C° 0.1 mm 3 mps 697 mmHg 51%
    13:00 +33°C° 0.4 mm 3 mps 696 mmHg 53%
    14:00 +33°C° 0.4 mm 3 mps 696 mmHg 54%
    15:00 +33°C° 0.4 mm 4 mps 695 mmHg 55%
    16:00 +31°C° 0.6 mm 3 mps 695 mmHg 61%
    17:00 +29°C° 0.6 mm 3 mps 695 mmHg 66%
    18:00 +28°C° 0.6 mm 3 mps 695 mmHg 71%
    19:00 +27°C° 0.1 mm 3 mps 696 mmHg 74%
    20:00 +26°C° 0.1 mm 2 mps 696 mmHg 77%
    21:00 +25°C° 0.1 mm 2 mps 696 mmHg 80%
    22:00 +25°C° 0 mm 2 mps 696 mmHg 80%
    23:00 +25°C° 0 mm 3 mps 696 mmHg 81%

    24 January, Wednesday

    Time Temperature Precipitation Wind Pressure Humidity
    00:00 +24°C° 0 mm 3 mps 696 mmHg 81%
    01:00 +24°C° 0 mm 2 mps 696 mmHg 81%
    02:00 +24°C° 0 mm 2 mps 695 mmHg 82%
    03:00 +24°C° 0 mm 2 mps 695 mmHg 82%
    04:00 +23°C° 0 mm 2 mps 695 mmHg 82%
    05:00 +23°C° 0 mm 2 mps 695 mmHg 82%
    06:00 +23°C° 0 mm 2 mps 695 mmHg 82%
    07:00 +25°C° 0 mm 3 mps 696 mmHg 76%
    08:00 +27°C° 0 mm 3 mps 696 mmHg 70%
    09:00 +28°C° 0 mm 3 mps 697 mmHg 63%
    10:00 +30°C° 0.2 mm 3 mps 697 mmHg 61%
    11:00 +31°C° 0.2 mm 3 mps 697 mmHg 58%
    12:00 +33°C° 0.2 mm 3 mps 697 mmHg 55%
    13:00 +33°C° 0.6 mm 3 mps 697 mmHg 56%
    14:00 +33°C° 0.6 mm 3 mps 696 mmHg 57%
    15:00 +33°C° 0.6 mm 3 mps 696 mmHg 58%
    16:00 +31°C° 0.6 mm 2 mps 696 mmHg 62%
    17:00 +30°C° 0.6 mm 2 mps 696 mmHg 66%
    18:00 +29°C° 0.6 mm 1 mps 696 mmHg 70%
    19:00 +28°C° 0.4 mm 1 mps 696 mmHg 73%
    20:00 +27°C° 0.4 mm 1 mps 696 mmHg 75%
    21:00 +26°C° 0.4 mm 1 mps 696 mmHg 77%
    22:00 +26°C° 0.7 mm 1 mps 696 mmHg 78%
    23:00 +25°C° 0.7 mm 1 mps 696 mmHg 80%

    25 January, Thursday

    Time Temperature Precipitation Wind Pressure Humidity
    00:00 +25°C° 0.7 mm 1 mps 696 mmHg 81%
    01:00 +25°C° 0.2 mm 1 mps 696 mmHg 83%
    02:00 +24°C° 0.2 mm 1 mps 696 mmHg 84%
    03:00 +24°C° 0.2 mm 1 mps 695 mmHg 86%
    04:00 +24°C° 0 mm 1 mps 695 mmHg 87%
    05:00 +24°C° 0 mm 1 mps 695 mmHg 88%
    06:00 +23°C° 0 mm 1 mps 696 mmHg 89%
    07:00 +25°C° 0 mm 1 mps 696 mmHg 83%
    08:00 +26°C° 0 mm 1 mps 697 mmHg 77%
    09:00 +28°C° 0 mm 2 mps 697 mmHg 71%
    10:00 +28°C° 0.7 mm 2 mps 697 mmHg 70%
    11:00 +29°C° 0.7 mm 3 mps 697 mmHg 69%
    12:00 +29°C° 0.7 mm 3 mps 697 mmHg 69%
    13:00 +29°C° 0.7 mm 3 mps 696 mmHg 71%
    14:00 +28°C° 0.7 mm 3 mps 696 mmHg 73%
    15:00 +28°C° 0.7 mm 4 mps 696 mmHg 75%
    16:00 +27°C° 0.4 mm 4 mps 696 mmHg 77%
    17:00 +26°C° 0.4 mm 4 mps 696 mmHg 79%
    18:00 +25°C° 0.4 mm 4 mps 696 mmHg 81%
    19:00 +23°C° 0 mm 4 mps 696 mmHg 84%
    20:00 +24°C° 0 mm 3 mps 696 mmHg 86%
    21:00 +22°C° 0 mm 3 mps 697 mmHg 88%
    22:00 +22°C° 0 mm 3 mps 697 mmHg 88%
    23:00 +21°C° 0 mm 3 mps 697 mmHg 88%
    Show more